This is the latest recevied weather packets stored in our database for station/object KE8ZLU. If no packets are shown the sender has not sent any weather packets the latest 10 day(s).
| Time | Temp. | Humidity | Pressure | Rain* | Wind** | Luminosity | Snow |
|---|---|---|---|---|---|---|---|
| 1777489663 | 10.56° C | 79% | 1012 hPa | 0 mm | - | 43 W/m² | - |
| 1777489358 | 11.11° C | 82% | 1012.1 hPa | 0 mm | - | 82 W/m² | - |
| 1777489056 | 11.11° C | 80% | 1012.2 hPa | 0 mm | - | 99 W/m² | - |
| 1777488752 | 11.11° C | 80% | 1012.2 hPa | 0 mm | - | 101 W/m² | - |
| 1777488450 | 11.11° C | 82% | 1012.2 hPa | 0 mm | - | 86 W/m² | - |
| 1777488148 | 11.11° C | 79% | 1012.1 hPa | 0 mm | - | 79 W/m² | - |
| 1777487846 | 11.11° C | 79% | 1012 hPa | 0 mm | - | 78 W/m² | - |
| 1777487544 | 11.11° C | 80% | 1012 hPa | 0 mm | - | 101 W/m² | - |
| 1777487241 | 11.11° C | 78% | 1012 hPa | 0 mm | - | 118 W/m² | - |
| 1777486937 | 11.11° C | 78% | 1012 hPa | 0 mm | - | 137 W/m² | - |
| 1777486633 | 11.11° C | 79% | 1012.2 hPa | 0 mm | - | 118 W/m² | - |
| 1777486331 | 10.56° C | 79% | 1012.2 hPa | 0 mm | - | 96 W/m² | - |
| 1777486028 | 11.11° C | 80% | 1012.5 hPa | 0 mm | - | 97 W/m² | - |
| 1777485725 | 11.11° C | 79% | 1012.4 hPa | 0 mm | - | 111 W/m² | - |
| 1777485421 | 11.11° C | 80% | 1012.3 hPa | 0 mm | - | 138 W/m² | - |
| 1777485116 | 11.11° C | 77% | 1012.3 hPa | 0 mm | - | 170 W/m² | - |
| 1777484814 | 11.11° C | 79% | 1012.5 hPa | 0 mm | - | 180 W/m² | - |
| 1777484509 | 11.11° C | 79% | 1012.4 hPa | 0 mm | - | 189 W/m² | - |
| 1777484207 | 11.11° C | 79% | 1012.6 hPa | 0 mm | - | 162 W/m² | - |
| 1777483903 | 11.11° C | 79% | 1012.5 hPa | 0 mm | - | 160 W/m² | - |
| 1777483600 | 11.11° C | 80% | 1012.4 hPa | 0 mm | - | 183 W/m² | - |
| 1777483300 | 11.11° C | 81% | 1012.5 hPa | 0 mm | - | 202 W/m² | - |
| 1777482996 | 11.11° C | 79% | 1012.6 hPa | 0 mm | - | 231 W/m² | - |
| 1777482693 | 11.11° C | 77% | 1012.4 hPa | 0 mm | - | 236 W/m² | - |
| 1777482389 | 11.11° C | 81% | 1012.6 hPa | 0 mm | - | 181 W/m² | - |
* Rain latest hour (hover to see other rain measurements)
** Current wind speed in m/s (hover to see current wind gust speed)